Date String (YYYY-MM-DD hh:mm:ss) UTC,Instrument flags,absolute air pressure of the measurement (hPa),sample flow rate (lpm),inlet stack bypass flow (lpm),air temperature of the measurement (°C),ambient temperature measured by the external sensor (°C),aerosol sample conditioner tube jacket temperature (°C),OPC LED temperature (°C),internal box temperature (°C),relative humidity of the measurement (%),span deviation,mass concentration of particles derived from Lorenz-Mie calculation of OPC scattering (μg/m³),mass concentration of particles derived from Lorenz-Mie calculation of OPC scattering (μg/m³),mass concentration of particles derived from Lorenz-Mie calculation of OPC scattering (μg/m³)
DateTimeUTC,F1_M11,P_M11,Q1_M11,Q2_M11,T1_M11,T2_M11,T3_M11,T4_M11,T5_M11,U1_M11,ZSPAN_M11,X2_M11,X0_M11,X1_M11
2023-10-12 16:00:00,SystemResetWarning,0813.7,5.00,000.00,028.4,027.1,000.0,036.7,030.0,21.3,0000.0,0001.94,0004.34,0001.55
2023-10-12 16:01:00,SystemResetWarning,0813.7,5.00,000.00,028.4,027.1,000.0,036.8,030.0,21.3,0000.0,0002.01,0004.58,0001.55
2023-10-12 16:02:00,SystemResetWarning,0813.7,5.00,000.00,028.4,027.1,000.0,036.8,030.1,21.1,0000.0,0002.02,0004.72,0001.55
2023-10-12 16:03:00,SystemResetWarning,0813.7,5.00,000.00,028.4,027.1,000.0,036.8,030.1,21.1,0000.0,0002.03,0004.81,0001.53
2023-10-12 16:04:00,SystemResetWarning,0813.7,5.00,000.00,028.4,027.1,000.0,036.8,030.1,21.5,0000.0,0002.07,0004.79,0001.53
2023-10-12 16:05:00,SystemResetWarning,0813.7,5.00,000.00,028.4,027.1,000.0,036.8,030.1,21.6,0000.0,0002.10,0004.67,0001.53
2023-10-12 16:06:00,SystemResetWarning,0813.6,5.00,000.00,028.5,027.2,000.0,036.8,030.1,21.4,0000.0,0002.15,0004.96,0001.52
2023-10-12 16:07:00,SystemResetWarning,0813.6,5.00,000.00,028.5,027.2,000.0,036.8,030.1,21.8,0000.0,0002.15,0005.02,0001.50
2023-10-12 16:08:00,SystemResetWarning,0813.6,5.00,000.00,028.5,027.2,000.0,036.8,030.2,21.8,0000.0,0002.14,0004.97,0001.49
2023-10-12 16:09:00,SystemResetWarning,0813.6,5.00,000.00,028.5,027.2,000.0,036.8,030.2,22.3,0000.0,0002.09,0004.66,0001.49
2023-10-12 16:10:00,SystemResetWarning,0813.6,5.00,000.00,028.5,027.2,000.0,036.8,030.2,22.1,0000.0,0002.07,0004.05,0001.51
2023-10-12 16:11:00,SystemResetWarning,0813.7,5.00,000.00,028.5,027.2,000.0,036.8,030.2,21.4,0000.0,0002.12,0004.17,0001.53
2023-10-12 16:12:00,SystemResetWarning,0813.6,5.00,000.00,028.5,027.2,000.0,036.9,030.2,20.8,0000.0,0002.08,0004.11,0001.55
2023-10-12 16:13:00,SystemResetWarning,0813.6,5.00,000.00,028.5,027.2,000.0,036.9,030.2,20.4,0000.0,0002.12,0004.11,0001.58
2023-10-12 16:14:00,SystemResetWarning,0813.7,5.00,000.00,028.5,027.2,000.0,036.9,030.2,20.0,0000.0,0002.18,0004.17,0001.61
2023-10-12 16:15:00,SystemResetWarning,0813.7,5.00,000.00,028.6,027.2,000.0,036.9,030.2,19.6,0000.0,0002.21,0004.19,0001.65
2023-10-12 16:16:00,SystemResetWarning,0813.7,5.00,000.00,028.6,027.3,000.0,036.9,030.2,19.3,0000.0,0002.21,0003.89,0001.68
2023-10-12 16:17:00,SystemResetWarning,0813.6,5.00,000.00,028.6,027.3,000.0,037.0,030.2,19.6,0000.0,0002.19,0003.55,0001.73
2023-10-12 16:18:00,SystemResetWarning,0813.6,5.00,000.00,028.6,027.3,000.0,037.0,030.2,19.9,0000.0,0002.21,0003.54,0001.77
2023-10-12 16:19:00,SystemResetWarning,0813.7,4.99,000.00,028.6,027.3,000.0,037.0,030.3,19.9,0000.0,0002.26,0003.68,0001.82
2023-10-12 16:20:00,SystemResetWarning,0813.6,4.99,000.00,028.6,027.3,000.0,037.0,030.3,19.9,0000.0,0002.31,0003.75,0001.85
2023-10-12 16:21:00,SystemResetWarning,0813.7,4.99,000.00,028.6,027.4,000.0,037.0,030.3,18.7,0000.0,0002.32,0003.72,0001.87
2023-10-12 16:22:00,SystemResetWarning,0813.6,5.00,000.00,028.7,027.4,000.0,037.0,030.3,19.2,0000.0,0002.31,0003.58,0001.89
2023-10-12 16:23:00,SystemResetWarning,0813.6,5.00,000.00,028.7,027.4,000.0,037.1,030.3,19.5,0000.0,0002.37,0003.59,0001.92
2023-10-12 16:24:00,SystemResetWarning,0813.7,5.00,000.00,028.7,027.4,000.0,037.1,030.3,19.0,0000.0,0002.40,0003.54,0001.96
2023-10-12 16:25:00,SystemResetWarning,0813.6,5.00,000.00,028.7,027.5,000.0,037.1,030.4,18.8,0000.0,0002.43,0003.70,0001.99
2023-10-12 16:26:00,SystemResetWarning,0813.7,5.00,000.00,028.7,027.5,000.0,037.1,030.4,19.0,0000.0,0002.47,0003.87,0002.00
2023-10-12 16:27:00,SystemResetWarning,0813.7,5.00,000.00,028.7,027.5,000.0,037.1,030.4,18.7,0000.0,0002.48,0003.93,0002.00
2023-10-12 16:28:00,SystemResetWarning,0813.7,5.00,000.00,028.8,027.5,000.0,037.1,030.4,20.1,0000.0,0002.46,0004.02,0001.99
2023-10-12 16:29:00,SystemResetWarning,0813.6,5.00,000.00,028.8,027.5,000.0,037.2,030.4,20.0,0000.0,0002.47,0004.17,0001.97
2023-10-12 16:30:00,SystemResetWarning,0813.6,5.00,000.00,028.8,027.6,000.0,037.2,030.5,19.7,0000.0,0002.41,0004.10,0001.95
2023-10-12 16:31:00,SystemResetWarning,0813.7,5.00,000.00,028.8,027.6,000.0,037.2,030.5,19.3,0000.0,0002.43,0004.49,0001.93
2023-10-12 16:32:00,SystemResetWarning,0813.6,5.00,000.00,028.8,027.6,000.0,037.2,030.5,19.2,0000.0,0002.40,0004.84,0001.91
2023-10-12 16:33:00,SystemResetWarning,0813.7,5.00,000.00,028.8,027.6,000.0,037.2,030.5,19.7,0000.0,0002.38,0004.77,0001.88
2023-10-12 16:34:00,SystemResetWarning,0813.7,5.00,000.00,028.9,027.6,000.0,037.2,030.5,19.9,0000.0,0002.34,0004.65,0001.86
2023-10-12 16:35:00,SystemResetWarning,0813.7,5.00,000.00,028.9,027.6,000.0,037.2,030.5,20.3,0000.0,0002.32,0004.68,0001.84
2023-10-12 16:36:00,SystemResetWarning,0813.7,5.00,000.00,028.9,027.6,000.0,037.2,030.5,20.3,0000.0,0002.32,0004.64,0001.84
2023-10-12 16:37:00,SystemResetWarning,0813.7,5.00,000.00,028.9,027.7,000.0,037.3,030.6,20.4,0000.0,0002.26,0004.42,0001.81
2023-10-12 16:38:00,SystemResetWarning,0813.6,5.00,000.00,028.9,027.7,000.0,037.3,030.6,19.9,0000.0,0002.23,0004.31,0001.81
2023-10-12 16:39:00,SystemResetWarning,0813.6,5.00,000.00,028.9,027.7,000.0,037.3,030.6,19.4,0000.0,0002.18,0004.17,0001.79
2023-10-12 16:40:00,SystemResetWarning,0813.6,5.00,000.00,028.9,027.7,000.0,037.3,030.6,19.8,0000.0,0002.16,0004.04,0001.79
2023-10-12 16:41:00,SystemResetWarning,0813.7,5.00,000.00,029.0,027.7,000.0,037.3,030.6,20.3,0000.0,0002.17,0003.98,0001.79
2023-10-12 16:42:00,SystemResetWarning,0813.7,5.00,000.00,029.0,027.7,000.0,037.3,030.6,20.1,0000.0,0002.17,0003.63,0001.80
2023-10-12 16:43:00,SystemResetWarning,0813.7,5.00,000.00,029.0,027.7,000.0,037.4,030.6,20.3,0000.0,0002.19,0003.26,0001.83
2023-10-12 16:44:00,SystemResetWarning,0813.7,5.00,000.00,029.0,027.7,000.0,037.4,030.6,20.8,0000.0,0002.23,0003.33,0001.87
2023-10-12 16:45:00,SystemResetWarning,0813.7,5.00,000.00,029.0,027.7,000.0,037.4,030.7,20.6,0000.0,0002.27,0003.66,0001.90
2023-10-12 16:46:00,SystemResetWarning,0813.7,5.01,000.00,029.0,027.8,000.0,037.4,030.7,20.5,0000.0,0002.34,0004.21,0001.94
2023-10-12 16:47:00,SystemResetWarning,0813.7,5.00,000.00,029.0,027.8,000.0,037.4,030.7,20.3,0000.0,0002.29,0003.99,0001.95
2023-10-12 16:48:00,SystemResetWarning,0813.8,5.00,000.00,029.1,027.8,000.0,037.4,030.7,20.6,0000.0,0002.29,0004.03,0001.95
2023-10-12 16:49:00,SystemResetWarning,0813.8,5.00,000.00,029.1,027.8,000.0,037.4,030.7,20.5,0000.0,0002.34,0004.22,0001.96
2023-10-12 16:50:00,SystemResetWarning,0813.9,5.00,000.00,029.1,027.8,000.0,037.5,030.7,20.0,0000.0,0002.40,0004.34,0001.96
2023-10-12 16:51:00,SystemResetWarning,0813.9,5.00,000.00,029.1,027.8,000.0,037.5,030.7,20.5,0000.0,0002.39,0004.39,0001.96
2023-10-12 16:52:00,SystemResetWarning,0813.9,5.00,000.00,029.1,027.8,000.0,037.4,030.8,20.2,0000.0,0002.38,0006.06,0001.95
2023-10-12 16:53:00,SystemResetWarning,0813.9,5.00,000.00,029.1,027.8,000.0,037.5,030.8,19.8,0000.0,0002.33,0005.99,0001.92
2023-10-12 16:54:00,SystemResetWarning,0813.9,5.00,000.00,029.1,027.8,000.0,037.5,030.8,20.4,0000.0,0002.31,0005.90,0001.91
2023-10-12 16:55:00,SystemResetWarning,0813.8,5.00,000.00,029.1,027.9,000.0,037.5,030.8,20.7,0000.0,0002.29,0006.57,0001.88
2023-10-12 16:56:00,SystemResetWarning,0813.8,5.00,000.00,029.2,027.9,000.0,037.5,030.8,20.9,0000.0,0002.25,0007.39,0001.85
2023-10-12 16:57:00,SystemResetWarning,0813.8,5.00,000.00,029.2,027.9,000.0,037.5,030.8,20.7,0000.0,0002.18,0006.68,0001.80
2023-10-12 16:58:00,SystemResetWarning,0813.7,5.00,000.00,029.2,027.9,000.0,037.6,030.8,20.5,0000.0,0002.13,0006.63,0001.74
2023-10-12 16:59:00,SystemResetWarning,0813.7,5.00,000.00,029.2,027.9,000.0,037.6,030.8,20.2,0000.0,0002.10,0006.70,0001.70
